Location: W�rzburg
(49.7529°N, 9.8822°E)
Time: 02:19:23
(UTC+02:00)

ISS - Visible Passes

Search period start: 23 July 2018 00:00
Search period end: 02 August 2018 00:00
Orbit: 402 x 408 km, 51.6° (Epoch: 23 July)

Date Brightness Start Highest point End Pass type
(mag) Time Alt. Az. Time Alt. Az. Time Alt. Az.
23 Jul -3.5 01:15:41 10° WNW 01:18:58 65° N 01:20:53 23° E visible
23 Jul -1.9 02:52:15 10° WNW 02:53:22 19° W 02:53:22 19° W visible
23 Jul -3.9 22:46:52 10° WSW 22:50:10 89° SSE 22:53:28 10° ENE visible
24 Jul -3.3 00:23:32 10° W 00:26:48 60° N 00:29:11 17° E visible
24 Jul -2.3 02:00:06 10° WNW 02:01:47 27° W 02:01:47 27° W visible
24 Jul -3.8 21:54:48 10° WSW 21:58:03 64° SSE 22:01:19 10° ENE visible
24 Jul -3.3 23:31:21 10° W 23:34:36 61° N 23:37:53 10° ENE visible
25 Jul -3.6 01:07:58 10° WNW 01:10:50 64° WNW 01:10:50 64° WNW visible
25 Jul -3.5 22:39:08 10° W 22:42:25 68° N 22:45:42 10° ENE visible
26 Jul -3.6 00:15:48 10° WNW 00:19:05 69° N 00:20:03 41° E visible
26 Jul -1.2 01:52:23 10° W 01:52:41 12° W 01:52:41 12° W visible
26 Jul -3.7 21:46:57 10° WSW 21:50:14 83° NNW 21:53:32 10° ENE visible
26 Jul -3.4 23:23:37 10° WNW 23:26:54 61° N 23:29:23 16° E visible
27 Jul -2.4 01:00:10 10° WNW 01:02:01 30° W 01:02:01 30° W visible
27 Jul -3.3 22:31:24 10° W 22:34:39 59° N 22:37:55 10° E visible
28 Jul -4.0 00:08:00 10° WNW 00:11:17 87° SSW 00:11:24 82° SE visible
28 Jul -3.7 23:15:48 10° WNW 23:19:05 74° N 23:20:49 25° E visible
29 Jul -1.6 00:52:24 10° W 00:53:27 18° W 00:53:27 18° W visible
29 Jul -3.4 22:23:35 10° WNW 22:26:51 63° N 22:30:07 10° E visible
30 Jul -3.4 00:00:08 10° WNW 00:02:53 48° WSW 00:02:53 48° WSW visible
30 Jul -3.9 23:07:55 10° WNW 23:11:12 78° SSW 23:12:21 37° ESE visible
31 Jul -1.0 00:44:52 10° W 00:44:59 11° W 00:44:59 11° W visible
31 Jul -3.8 22:15:41 10° WNW 22:18:58 80° NNE 22:21:50 13° ESE visible
31 Jul -2.3 23:52:20 10° W 23:54:29 26° WSW 23:54:29 26° WSW visible
01 Aug -3.4 23:00:00 10° WNW 23:03:10 46° SSW 23:03:59 36° SSE visible
